Location: Mt. Cuba Astronomical Observatory
(39.8100°N, 75.6300°W)
Time: 18:28:34
(UTC-04:00)

Daily predictions for brighter satellites

Satellite Brightness Start Highest point End
(mag) Time Altitude Azimuth Time Altitude Azimuth Time Altitude Azimuth
Resurs 1-3 3.6 20:00:50 10° SSE 20:05:12 73° ENE 20:09:35 10° N
H-2A R/B 3.7 20:02:18 10° SE 20:05:45 31° ENE 20:09:15 10° N
ERS-1 Rocket 4.4 20:09:08 10° ESE 20:12:41 20° ENE 20:16:15 10° NNE
Cosmos 1975 3.6 20:09:28 10° SSE 20:13:07 32° E 20:16:47 10° NNE
FENGYUN 3A 3.8 20:12:10 10° SSE 20:17:24 58° ENE 20:22:40 10° N
Lacrosse 5 rocket 1.0 20:14:54 10° NW 20:18:39 74° NE 20:22:13 10° SE
Cosmos 1656 3.9 20:13:48 10° S 20:19:08 46° ESE 20:24:27 10° NE
Cosmos 1934 Rocket 4.1 20:15:13 10° S 20:21:21 88° WNW 20:27:37 10° N
Helios 1B rocket 3.8 20:21:32 10° N 20:25:28 44° WNW 20:29:22 10° SW
Cosmos 1544 Rocket 4.3 20:21:27 10° SSW 20:25:45 59° W 20:30:09 10° N
DELTA 2 R/B (1) 3.7 20:21:56 10° W 20:27:30 73° SSW 20:32:20 14° ESE
Cosmos 1898 Rocket 4.1 20:22:52 10° N 20:27:48 38° ENE 20:32:15 12° SE
CZ-2D R/B 3.3 20:24:08 10° SSE 20:27:57 65° ENE 20:31:49 10° N
Okean 2 4.0 20:23:55 10° NNW 20:28:03 62° W 20:32:07 10° S
Cosmos 2227 Rocket 2.3 20:23:31 10° NNW 20:29:12 86° WSW 20:34:51 10° SSE
Resurs 01 Rocket 2.8 20:25:17 10° S 20:29:31 45° W 20:33:48 10° NNW
Cosmos 1500 3.8 20:31:39 10° SSE 20:35:04 34° E 20:38:31 10° NNE
Meteor 1-12 Rocket 4.2 20:29:51 10° S 20:35:32 71° E 20:41:22 10° NNE
CZ-4 DEB 4.1 20:34:36 17° ESE 20:35:54 23° ENE 20:38:28 10° NNE
OAO 2 Rocket 3.7 20:35:33 10° WSW 20:40:21 49° S 20:43:52 18° ESE
Cosmos 468 Rocket 4.1 20:35:43 10° S 20:40:38 49° ESE 20:45:34 10° NNE
Cosmos 2297 Rocket 2.2 20:38:37 10° NNW 20:44:18 90° WSW 20:49:58 10° SSE
Cosmos 1340 4.3 20:42:15 10° NNE 20:44:53 18° ENE 20:45:27 17° E
Cosmos 2082 4.0 20:39:28 10° NNW 20:45:03 68° WSW 20:50:37 10° SSE
ALOS 2.6 20:43:17 10° S 20:47:56 67° W 20:52:36 10° NNW
Cosmos 1346 Rocket 4.3 20:47:09 10° NNW 20:50:50 37° W 20:54:31 10° SSW
Cosmos 1939 Rocket 3.8 20:49:05 22° ESE 20:50:55 32° ENE 20:54:39 10° N
Cosmos 1814 Rocket 4.1 20:47:01 10° S 20:52:12 53° ESE 20:57:22 10° NNE
USA 186 2.0 20:51:55 10° S 20:54:58 61° W 20:57:50 10° NNW
OTV 4 2.5 20:55:31 10° WSW 20:57:38 18° SSW 20:58:28 16° S
Cosmos 1515 3.6 20:55:49 10° N 20:59:41 83° E 21:02:36 17° S
ASTEX 1 4.4 21:01:26 10° NNE 21:05:36 26° E 21:06:04 26° E
Cosmos 2173 Rocket 4.1 21:00:27 10° S 21:06:39 58° E 21:12:50 10° NNE
Cosmos 1825 Rocket 4.0 21:04:13 10° N 21:08:26 42° ENE 21:09:42 34° ESE
Cosmos 858 Rocket 4.4 21:04:40 10° NNW 21:09:59 81° ENE 21:13:20 23° SSE
Cosmos 1743 2.7 21:13:07 31° SSE 21:14:45 60° E 21:18:37 10° NNE
RESURS DK-1 2.3 21:14:17 10° NNW 21:18:26 74° ENE 21:19:37 45° SE
BREEZE-M DEB (TANK) 4.0 21:01:07 10° WSW 21:18:31 86° SSE 21:22:27 17° ENE
Tiangong 1 1.0 21:15:34 10° WNW 21:18:40 71° NNE 21:18:49 68° NE
Cosmos 1697 Rocket 2.9 21:13:14 10° SSW 21:18:52 76° WNW 21:24:31 10° NNE
Cosmos 1953 Rocket 4.0 21:15:08 10° N 21:19:23 41° ENE 21:19:56 39° E
Cosmos 1066 Rocket 4.3 21:15:27 10° N 21:21:10 84° W 21:25:46 17° S
H-2A R/B 2.3 21:20:46 41° E 21:21:11 42° ENE 21:25:07 10° N
Cosmos 2100 Rocket 3.9 21:15:37 10° S 21:21:53 83° E 21:28:09 10° N
Iridium 4 Rocket 4.0 21:19:15 10° N 21:24:06 54° W 21:28:31 10° SSW
Envisat 2.9 21:23:26 33° SSE 21:25:43 73° ENE 21:30:49 10° N
YAOGAN 11 4.3 21:24:13 24° S 21:26:52 71° WSW 21:31:20 10° NNW
SL-16 R/B 3.6 21:31:23 22° ENE 21:31:23 22° ENE 21:33:59 10° NE
Cosmos 1937 Rocket 3.5 21:24:19 10° NNW 21:29:37 85° WSW 21:32:04 33° SSE
Cosmos 2084 4.2 21:27:46 10° NW 21:31:41 44° WSW 21:33:09 32° SSW
Cosmos 2061 Rocket 3.9 21:25:45 10° S 21:32:04 90° ESE 21:38:21 10° N
Tsikada Rocket 4.5 21:27:06 10° N 21:33:08 41° ENE 21:34:27 37° ESE
ARGOS 4.0 21:34:52 31° ENE 21:35:15 31° ENE 21:39:57 10° N
Milstar 3 Cent rocket 4.5 21:14:23 10° W 21:35:53 51° SSW 21:41:59 30° SE
Cosmos 1758 Rocket 3.6 21:33:43 10° N 21:37:55 56° ENE 21:37:55 56° ENE
Cosmos 990 Rocket 3.9 21:35:12 10° NNW 21:40:30 89° ENE 21:42:00 48° SSE
Cosmos 1980 Rocket 2.2 21:36:42 10° SSW 21:42:22 80° WNW 21:48:06 10° NNE
deb Chang Zheng 4 3.5 21:39:09 10° NNE 21:43:38 82° ESE 21:44:26 59° S
Lacrosse 5 2.0 21:38:47 10° NW 21:43:48 67° SW 21:44:53 51° S
H-2A R/B 3.7 21:46:51 19° NE 21:46:51 19° NE 21:49:30 10° NNE
Cosmos 1842 4.0 21:43:13 10° N 21:46:02 41° NNE 21:46:02 41° NNE
MetOp-B 4.1 21:46:49 56° ESE 21:47:40 64° ENE 21:52:58 10° N
SPOT 5 2.8 21:49:21 65° SE 21:50:01 78° ENE 21:54:51 10° N
ERS-1 Rocket 3.7 21:48:21 24° SSW 21:51:05 48° W 21:55:57 10° NNW
Cosmos 1459 Rocket 4.4 21:45:11 10° SSW 21:51:08 61° W 21:57:12 10° N
Cosmos 1725 Rocket 3.9 21:53:17 50° SSE 21:54:47 67° E 22:00:58 10° NNE
Cosmos 836 Rocket 4.3 21:56:48 71° SE 21:57:10 74° ESE 22:02:28 10° NNE
BREEZE-M TANK 2.7 21:50:25 10° WNW 21:58:04 73° SSW 21:58:04 73° SSW
Cosmos 1666 3.9 22:00:57 35° N 22:00:57 35° N 22:03:16 10° N
Cosmos 2058 Rocket 3.2 22:03:45 74° NNW 22:03:45 74° NNW 22:07:54 10° N
Cosmos 2098 Rocket 3.9 22:00:54 34° S 22:04:10 89° E 22:09:58 10° N
Cosmos 1763 Rocket 4.0 21:59:49 10° SSW 22:04:49 57° WNW 22:09:50 10° N
SPOT 1/Viking Rocket 3.6 22:05:15 61° ENE 22:05:15 61° ENE 22:10:11 10° N
Cosmos 2263 Rocket 3.2 22:04:36 10° N 22:09:09 32° NE 22:09:09 32° NE
Terra 3.5 22:15:54 22° NE 22:15:54 22° NE 22:18:14 10° N
Meteor 1-15 Rocket 4.2 22:13:44 67° S 22:14:35 89° W 22:20:30 10° N
YAOGAN 6 4.2 22:16:13 34° NNW 22:16:13 34° NNW 22:18:28 10° NNW
Cosmos 2322 Rocket 2.4 22:16:55 57° NE 22:16:55 57° NE 22:21:25 10° NNE
Cosmos 1125 Rocket 3.6 22:11:00 10° NNW 22:15:42 68° NNE 22:15:42 68° NNE
Cosmos 2233 Rocket 4.0 22:19:10 60° ENE 22:19:10 60° ENE 22:24:46 10° NNE
USA 215 4.1 22:18:44 34° ENE 22:20:29 40° NNE 22:26:29 10° NW
BREEZE-M DEB (TANK) 4.0 22:05:38 10° WNW 22:24:23 63° NNE 22:25:51 51° ENE
SL-16 R/B 3.3 23:13:10 40° WNW 23:13:10 40° WNW 23:18:26 10° N
H-2A R/B 3.8 23:27:29 27° NW 23:27:29 27° NW 23:29:54 10° NNW
Cosmos 2360 Rocket 4.0 23:30:08 25° NNE 23:30:08 25° NNE 23:32:24 10° NNE
Terra 4.4 23:54:47 16° NW 23:54:47 16° NW 23:56:02 10° NW
Cosmos 2263 Rocket 4.2 23:48:30 10° NW 23:50:51 22° WNW 23:50:51 22° WNW
